| time (UTC) | temp F | wind direction | speed knots | gust knots | rain 1hr in | rain 24hr in | rain mn in | humidity % | barometer mb |
| 20260506145017 | 75 | 77 | 0.0 | 1.7 | 0.00 | 0.00 | 0.00 | 91 | 1025.9 |
| 20260506144513 | 75 | 60 | 0.0 | 0.0 | 0.00 | 0.00 | 0.00 | 91 | 1025.8 |
| 20260506144011 | 75 | 55 | 0.0 | 0.9 | 0.00 | 0.00 | 0.00 | 91 | 1025.9 |
| 20260506143508 | 75 | 36 | 0.9 | 1.7 | 0.00 | 0.00 | 0.00 | 91 | 1025.9 |
| 20260506143007 | 75 | 55 | 0.9 | 0.9 | 0.00 | 0.00 | 0.00 | 91 | 1025.9 |
| 20260506142504 | 75 | 58 | 0.0 | 0.9 | 0.00 | 0.00 | 0.00 | 91 | 1025.9 |
| 20260506142002 | 75 | 80 | 0.9 | 0.9 | 0.00 | 0.00 | 0.00 | 90 | 1025.6 |
| 20260506141459 | 75 | 76 | 0.0 | 0.9 | 0.00 | 0.00 | 0.00 | 90 | 1025.4 |
| 20260506140958 | 75 | 71 | 0.0 | 0.9 | 0.00 | 0.00 | 0.00 | 91 | 1025.3 |
| 20260506140454 | 75 | 73 | 1.7 | 2.6 | 0.00 | 0.00 | 0.00 | 90 | 1025.4 |
| 20260506135951 | 75 | 40 | 0.9 | 0.9 | 0.00 | 0.00 | 0.00 | 90 | 1025.4 |
| 20260506135448 | 75 | 55 | 0.0 | 0.9 | 0.00 | 0.00 | 0.00 | 90 | 1025.2 |
| 20260506134944 | 75 | 67 | 0.9 | 2.6 | 0.00 | 0.00 | 0.00 | 90 | 1025.1 |
| 20260506134440 | 75 | 61 | 0.0 | 1.7 | 0.00 | 0.00 | 0.00 | 89 | 1024.8 |
| 20260506133937 | 75 | 75 | 1.7 | 3.5 | 0.00 | 0.00 | 0.00 | 89 | 1024.8 |
| 20260506133434 | 75 | 69 | 0.9 | 1.7 | 0.00 | 0.00 | 0.00 | 89 | 1024.8 |
| 20260506132931 | 75 | 138 | 0.9 | 1.7 | 0.00 | 0.00 | 0.00 | 89 | 1024.6 |
| 20260506132428 | 76 | 77 | 1.7 | 2.6 | 0.00 | 0.00 | 0.00 | 89 | 1024.8 |
| 20260506131926 | 76 | 95 | 0.0 | 1.7 | 0.00 | 0.00 | 0.00 | 88 | 1024.7 |
| 20260506131422 | 76 | 3 | 0.9 | 0.9 | 0.00 | 0.00 | 0.00 | 88 | 1024.8 |
| 20260506130919 | 76 | 80 | 0.9 | 0.9 | 0.00 | 0.00 | 0.00 | 89 | 1024.7 |
| 20260506130415 | 76 | 71 | 0.0 | 0.9 | 0.00 | 0.00 | 0.00 | 89 | 1024.6 |
| 20260506125914 | 75 | 93 | 0.9 | 2.6 | 0.00 | 0.00 | 0.00 | 89 | 1024.6 |
| 20260506125412 | 75 | 81 | 0.9 | 2.6 | 0.00 | 0.00 | 0.00 | 90 | 1024.6 |
| 20260506124910 | 75 | 354 | 2.6 | 3.5 | 0.00 | 0.00 | 0.00 | 89 | 1024.6 |
| 20260506124407 | 75 | 60 | 0.9 | 1.7 | 0.00 | 0.00 | 0.00 | 90 | 1024.7 |
| 20260506123904 | 75 | 45 | 0.9 | 1.7 | 0.00 | 0.00 | 0.00 | 90 | 1024.8 |
| 20260506123402 | 75 | 76 | 0.0 | 0.0 | 0.00 | 0.00 | 0.00 | 90 | 1024.8 |
| 20260506122859 | 75 | 79 | 0.0 | 1.7 | 0.00 | 0.00 | 0.00 | 90 | 1024.6 |
| 20260506122356 | 75 | 182 | 0.9 | 1.7 | 0.00 | 0.00 | 0.00 | 90 | 1024.7 |
| 20260506121855 | 75 | 84 | 0.0 | 0.9 | 0.00 | 0.00 | 0.00 | 90 | 1024.5 |
| 20260506121351 | 75 | 208 | 0.0 | 1.7 | 0.00 | 0.00 | 0.00 | 90 | 1024.6 |
| 20260506120848 | 75 | 136 | 0.0 | 0.9 | 0.00 | 0.00 | 0.00 | 90 | 1024.5 |
| 20260506120346 | 75 | 40 | 0.9 | 0.9 | 0.00 | 0.00 | 0.00 | 90 | 1024.4 |
| 20260506115843 | 75 | 150 | 0.9 | 1.7 | 0.00 | 0.00 | 0.00 | 90 | 1024.4 |
| 20260506115341 | 75 | 67 | 0.0 | 0.9 | 0.00 | 0.00 | 0.00 | 90 | 1024.4 |
| 20260506114839 | 75 | 62 | 0.0 | 2.6 | 0.00 | 0.00 | 0.00 | 90 | 1024.3 |
| 20260506114336 | 75 | 207 | 1.7 | 1.7 | 0.00 | 0.00 | 0.00 | 90 | 1024.4 |
| 20260506113835 | 75 | 180 | 0.9 | 1.7 | 0.00 | 0.00 | 0.00 | 90 | 1024.3 |
| 20260506113332 | 75 | 95 | 0.9 | 1.7 | 0.00 | 0.00 | 0.00 | 90 | 1024.3 |
| 20260506112828 | 75 | 65 | 0.0 | 1.7 | 0.00 | 0.00 | 0.00 | 90 | 1024.3 |
| 20260506112326 | 75 | 78 | 0.9 | 1.7 | 0.00 | 0.00 | 0.00 | 90 | 1024.3 |
| 20260506111823 | 75 | 81 | 0.0 | 0.9 | 0.00 | 0.00 | 0.00 | 90 | 1024.3 |
| 20260506111321 | 75 | 44 | 0.0 | 0.9 | 0.00 | 0.00 | 0.00 | 90 | 1024.3 |
| 20260506110818 | 75 | 87 | 0.0 | 1.7 | 0.00 | 0.00 | 0.00 | 90 | 1024.3 |
| 20260506110315 | 75 | 84 | 0.0 | 0.0 | 0.00 | 0.00 | 0.00 | 90 | 1024.1 |
| 20260506105812 | 75 | 49 | 0.0 | 0.9 | 0.00 | 0.00 | 0.00 | 90 | 1024.0 |
| 20260506105309 | 75 | 64 | 0.9 | 1.7 | 0.00 | 0.00 | 0.00 | 90 | 1024.0 |
| 20260506104806 | 75 | 154 | 0.9 | 1.7 | 0.00 | 0.00 | 0.00 | 89 | 1024.1 |
| 20260506104304 | 75 | 44 | 0.9 | 0.9 | 0.00 | 0.00 | 0.00 | 89 | 1024.1 |
| 20260506103801 | 75 | 58 | 0.0 | 1.7 | 0.00 | 0.00 | 0.00 | 89 | 1024.0 |
| 20260506103259 | 75 | 72 | 0.9 | 1.7 | 0.00 | 0.00 | 0.00 | 89 | 1024.0 |
| 20260506102756 | 75 | 74 | 0.0 | 1.7 | 0.00 | 0.00 | 0.00 | 89 | 1024.3 |
| 20260506102254 | 75 | 83 | 0.9 | 0.9 | 0.00 | 0.00 | 0.00 | 89 | 1024.3 |
| 20260506101751 | 75 | 72 | 0.0 | 0.9 | 0.00 | 0.00 | 0.00 | 89 | 1024.0 |
| 20260506101247 | 75 | 185 | 0.0 | 1.7 | 0.00 | 0.00 | 0.00 | 89 | 1023.9 |
| 20260506100745 | 75 | 62 | 0.0 | 1.7 | 0.00 | 0.00 | 0.00 | 89 | 1024.0 |
| 20260506100243 | 75 | 58 | 0.0 | 0.0 | 0.00 | 0.00 | 0.00 | 89 | 1024.0 |
| 20260506095741 | 75 | 52 | 0.0 | 2.6 | 0.00 | 0.00 | 0.00 | 89 | 1023.9 |
| 20260506095238 | 75 | 148 | 1.7 | 3.5 | 0.00 | 0.00 | 0.00 | 89 | 1023.9 |
| 20260506094734 | 75 | 64 | 0.0 | 2.6 | 0.00 | 0.00 | 0.00 | 89 | 1023.8 |
| 20260506094233 | 75 | 124 | 0.9 | 1.7 | 0.00 | 0.00 | 0.00 | 89 | 1023.8 |
| 20260506093731 | 75 | 160 | 0.9 | 1.7 | 0.00 | 0.00 | 0.00 | 88 | 1023.7 |
| 20260506093228 | 75 | 156 | 0.0 | 2.6 | 0.00 | 0.00 | 0.00 | 88 | 1023.7 |
| 20260506092726 | 76 | 49 | 0.0 | 1.7 | 0.00 | 0.00 | 0.00 | 88 | 1023.6 |
| 20260506092223 | 76 | 94 | 0.0 | 1.7 | 0.00 | 0.00 | 0.00 | 88 | 1023.5 |
| 20260506091720 | 76 | 13 | 0.9 | 1.7 | 0.00 | 0.00 | 0.00 | 88 | 1023.4 |
| 20260506091218 | 76 | 203 | 0.9 | 3.5 | 0.00 | 0.00 | 0.00 | 88 | 1023.5 |
| 20260506090715 | 76 | 269 | 1.7 | 3.5 | 0.00 | 0.00 | 0.00 | 87 | 1023.7 |
| 20260506090212 | 76 | 132 | 0.9 | 1.7 | 0.00 | 0.00 | 0.00 | 87 | 1023.7 |
| 20260506085709 | 76 | 99 | 0.9 | 1.7 | 0.00 | 0.00 | 0.00 | 87 | 1023.9 |
| 20260506085205 | 76 | 201 | 0.9 | 2.6 | 0.00 | 0.00 | 0.00 | 87 | 1023.9 |
| 20260506084702 | 76 | 93 | 0.0 | 0.9 | 0.00 | 0.00 | 0.00 | 87 | 1023.9 |
| 20260506084158 | 76 | 195 | 0.9 | 2.6 | 0.00 | 0.00 | 0.00 | 87 | 1023.9 |
| 20260506083655 | 76 | 30 | 1.7 | 1.7 | 0.00 | 0.00 | 0.00 | 87 | 1023.8 |
| 20260506083153 | 76 | 101 | 0.9 | 1.7 | 0.00 | 0.00 | 0.00 | 87 | 1023.8 |
| 20260506082650 | 76 | 51 | 0.0 | 0.9 | 0.00 | 0.00 | 0.00 | 86 | 1023.8 |
| 20260506082150 | 76 | 71 | 0.9 | 1.7 | 0.00 | 0.00 | 0.00 | 86 | 1023.6 |
| 20260506081649 | 76 | 78 | 0.0 | 1.7 | 0.00 | 0.00 | 0.00 | 86 | 1023.8 |
| 20260506081146 | 76 | 234 | 0.9 | 2.6 | 0.00 | 0.00 | 0.00 | 86 | 1023.6 |
| 20260506080644 | 76 | 103 | 0.9 | 2.6 | 0.00 | 0.00 | 0.00 | 86 | 1023.6 |
| 20260506080140 | 76 | 130 | 0.9 | 1.7 | 0.00 | 0.00 | 0.00 | 86 | 1023.9 |
| 20260506073124 | 76 | 91 | 1.7 | 1.7 | 0.00 | 0.00 | 0.00 | 86 | 1023.9 |
| 20260506072621 | 76 | 129 | 0.9 | 0.9 | 0.00 | 0.00 | 0.00 | 86 | 1024.1 |
| 20260506072119 | 76 | 257 | 1.7 | 2.6 | 0.00 | 0.00 | 0.00 | 86 | 1024.1 |
| 20260506071616 | 76 | 339 | 2.6 | 5.2 | 0.00 | 0.00 | 0.00 | 86 | 1024.0 |
| 20260506071114 | 76 | 48 | 0.0 | 1.7 | 0.00 | 0.00 | 0.00 | 86 | 1024.3 |
| 20260506070611 | 76 | 183 | 0.0 | 0.9 | 0.00 | 0.00 | 0.00 | 86 | 1024.1 |
| 20260506070108 | 76 | 140 | 0.9 | 5.2 | 0.00 | 0.00 | 0.00 | 86 | 1024.4 |
| 20260506062045 | 77 | 114 | 1.7 | 2.6 | 0.00 | 0.00 | 0.00 | 85 | 1024.7 |
| 20260506061541 | 77 | 112 | 0.9 | 2.6 | 0.00 | 0.00 | 0.00 | 85 | 1024.6 |
| 20260506061038 | 77 | 57 | 0.0 | 1.7 | 0.00 | 0.00 | 0.00 | 85 | 1024.5 |
| 20260506060537 | 77 | 205 | 1.7 | 6.1 | 0.00 | 0.00 | 0.00 | 85 | 1024.5 |
| 20260506051006 | 77 | 133 | 1.7 | 1.7 | 0.00 | 0.00 | 0.00 | 84 | 1024.5 |
| 20260506050503 | 77 | 98 | 0.9 | 2.6 | 0.00 | 0.00 | 0.00 | 84 | 1024.3 |
| 20260506044953 | 77 | 31 | 1.7 | 2.6 | 0.00 | 0.00 | 0.00 | 84 | 1024.5 |
| 20260506044452 | 77 | 148 | 0.0 | 5.2 | 0.00 | 0.00 | 0.00 | 84 | 1024.4 |
| 20260506043948 | 77 | 177 | 0.9 | 2.6 | 0.00 | 0.00 | 0.00 | 84 | 1024.6 |
| 20260506043445 | 77 | 74 | 0.9 | 3.5 | 0.00 | 0.00 | 0.00 | 83 | 1024.5 |
| 20260506042943 | 77 | 160 | 1.7 | 1.7 | 0.00 | 0.00 | 0.00 | 83 | 1024.5 |
| 20260506042443 | 78 | 124 | 1.7 | 2.6 | 0.00 | 0.00 | 0.00 | 83 | 1024.4 |
| 20260506041940 | 78 | 359 | 0.9 | 1.7 | 0.00 | 0.00 | 0.00 | 83 | 1024.4 |
| 20260506041438 | 78 | 144 | 2.6 | 3.5 | 0.00 | 0.00 | 0.00 | 83 | 1024.3 |
| 20260506040935 | 78 | 95 | 2.6 | 3.5 | 0.00 | 0.00 | 0.00 | 83 | 1024.3 |
| 20260506040432 | 78 | 142 | 1.7 | 2.6 | 0.00 | 0.00 | 0.00 | 83 | 1024.0 |
| 20260506035928 | 78 | 49 | 1.7 | 3.5 | 0.00 | 0.00 | 0.00 | 83 | 1023.9 |
| 20260506035426 | 78 | 345 | 0.9 | 1.7 | 0.00 | 0.00 | 0.00 | 83 | 1024.1 |
| 20260506034922 | 78 | 83 | 1.7 | 5.2 | 0.00 | 0.00 | 0.00 | 83 | 1024.1 |
| 20260506034420 | 78 | 110 | 1.7 | 2.6 | 0.00 | 0.00 | 0.00 | 83 | 1024.0 |
| 20260506033916 | 78 | 11 | 1.7 | 1.7 | 0.00 | 0.00 | 0.00 | 83 | 1023.8 |
| 20260506033414 | 78 | 75 | 0.9 | 1.7 | 0.00 | 0.00 | 0.00 | 83 | 1023.6 |
| 20260506032910 | 78 | 71 | 0.0 | 2.6 | 0.00 | 0.00 | 0.00 | 83 | 1023.6 |
| 20260506032408 | 78 | 156 | 0.9 | 3.5 | 0.00 | 0.00 | 0.00 | 83 | 1023.6 |
| 20260506031904 | 78 | 139 | 0.9 | 5.2 | 0.00 | 0.00 | 0.00 | 83 | 1023.5 |
| 20260506031401 | 78 | 164 | 1.7 | 2.6 | 0.00 | 0.00 | 0.00 | 82 | 1023.5 |
| 20260506030859 | 78 | 146 | 0.9 | 6.1 | 0.00 | 0.00 | 0.00 | 82 | 1023.4 |
| 20260506030357 | 78 | 184 | 0.9 | 2.6 | 0.00 | 0.00 | 0.00 | 82 | 1023.3 |
| 20260506025853 | 79 | 76 | 0.9 | 1.7 | 0.00 | 0.00 | 0.00 | 81 | 1023.2 |
| 20260506025350 | 79 | 78 | 0.9 | 1.7 | 0.00 | 0.00 | 0.00 | 81 | 1023.2 |
| 20260506024847 | 79 | 48 | 1.7 | 1.7 | 0.00 | 0.00 | 0.00 | 81 | 1023.1 |
| 20260506024344 | 79 | 49 | 1.7 | 2.6 | 0.00 | 0.00 | 0.00 | 81 | 1023.0 |
| 20260506023840 | 79 | 21 | 0.9 | 1.7 | 0.00 | 0.00 | 0.00 | 80 | 1022.9 |
| 20260506023337 | 80 | 80 | 1.7 | 2.6 | 0.00 | 0.00 | 0.00 | 80 | 1022.7 |
| 20260506022834 | 80 | 88 | 0.9 | 2.6 | 0.00 | 0.00 | 0.00 | 79 | 1022.8 |
| 20260506022332 | 80 | 99 | 0.0 | 2.6 | 0.00 | 0.00 | 0.00 | 79 | 1022.9 |
| 20260506021830 | 80 | 169 | 0.9 | 0.9 | 0.00 | 0.00 | 0.00 | 78 | 1022.7 |
| 20260506021326 | 81 | 162 | 0.9 | 1.7 | 0.00 | 0.00 | 0.00 | 78 | 1022.4 |
| 20260506020822 | 81 | 93 | 1.7 | 3.5 | 0.00 | 0.00 | 0.00 | 77 | 1022.4 |
| 20260506020321 | 81 | 83 | 2.6 | 3.5 | 0.00 | 0.00 | 0.00 | 77 | 1022.5 |
| 20260506015818 | 82 | 83 | 1.7 | 2.6 | 0.00 | 0.00 | 0.00 | 76 | 1022.3 |
| 20260506015315 | 82 | 49 | 0.9 | 1.7 | 0.00 | 0.00 | 0.00 | 76 | 1022.3 |
| 20260506014812 | 82 | 358 | 0.9 | 2.6 | 0.00 | 0.00 | 0.00 | 75 | 1022.3 |
| 20260506014309 | 82 | 161 | 1.7 | 2.6 | 0.00 | 0.00 | 0.00 | 74 | 1022.4 |
| 20260506013806 | 83 | 91 | 0.9 | 2.6 | 0.00 | 0.00 | 0.00 | 73 | 1022.1 |
| 20260506013303 | 83 | 323 | 1.7 | 5.2 | 0.00 | 0.00 | 0.00 | 71 | 1022.0 |
| 20260506012759 | 83 | 94 | 1.7 | 2.6 | 0.00 | 0.00 | 0.00 | 71 | 1022.1 |
| 20260506012256 | 84 | 24 | 0.9 | 1.7 | 0.00 | 0.00 | 0.00 | 70 | 1022.0 |
| 20260506011754 | 84 | 218 | 0.9 | 2.6 | 0.00 | 0.00 | 0.00 | 69 | 1022.0 |
| 20260506011250 | 84 | 69 | 0.9 | 0.9 | 0.00 | 0.00 | 0.00 | 68 | 1022.0 |
| 20260506010748 | 84 | 54 | 0.0 | 0.9 | 0.00 | 0.00 | 0.00 | 68 | 1021.9 |
| 20260506010245 | 85 | 72 | 0.0 | 3.5 | 0.00 | 0.00 | 0.00 | 67 | 1021.8 |
| 20260506005742 | 85 | 77 | 0.0 | 1.7 | 0.00 | 0.00 | 0.00 | 67 | 1021.7 |
| 20260506005239 | 85 | 49 | 0.0 | 0.9 | 0.00 | 0.00 | 0.00 | 67 | 1021.7 |
| 20260506004735 | 85 | 57 | 0.0 | 1.7 | 0.00 | 0.00 | 0.00 | 66 | 1021.8 |
| 20260506004233 | 85 | 80 | 0.9 | 0.9 | 0.00 | 0.00 | 0.00 | 66 | 1021.8 |
| 20260506003728 | 85 | 173 | 1.7 | 1.7 | 0.00 | 0.00 | 0.00 | 66 | 1021.7 |
| 20260506003225 | 86 | 69 | 0.0 | 0.9 | 0.00 | 0.00 | 0.00 | 66 | 1021.6 |
| 20260506002721 | 86 | 101 | 0.9 | 2.6 | 0.00 | 0.00 | 0.00 | 65 | 1021.6 |
| 20260506002217 | 86 | 100 | 0.9 | 0.9 | 0.00 | 0.00 | 0.00 | 65 | 1021.5 |
| 20260506001713 | 86 | 88 | 0.0 | 1.7 | 0.00 | 0.00 | 0.00 | 65 | 1021.5 |
| 20260506001211 | 86 | 68 | 0.0 | 0.9 | 0.00 | 0.00 | 0.00 | 65 | 1021.5 |
| 20260506000708 | 86 | 102 | 0.9 | 2.6 | 0.00 | 0.00 | 0.00 | 64 | 1021.5 |
| 20260506000205 | 86 | 31 | 0.9 | 1.7 | 0.00 | 0.00 | 0.00 | 64 | 1021.4 |
| 20260505235703 | 87 | 114 | 0.9 | 2.6 | 0.00 | 0.00 | 0.00 | 64 | 1021.5 |
| 20260505235200 | 87 | 68 | 0.9 | 0.9 | 0.00 | 0.00 | 0.00 | 63 | 1021.3 |
| 20260505234657 | 87 | 70 | 0.0 | 1.7 | 0.00 | 0.00 | 0.00 | 63 | 1021.4 |
| 20260505234154 | 87 | 67 | 0.9 | 2.6 | 0.00 | 0.00 | 0.00 | 63 | 1021.2 |
| 20260505233650 | 87 | 137 | 1.7 | 5.2 | 0.00 | 0.00 | 0.00 | 64 | 1021.3 |
| 20260505233148 | 87 | 163 | 1.7 | 5.2 | 0.00 | 0.00 | 0.00 | 63 | 1021.2 |
| 20260505232646 | 87 | 242 | 1.7 | 8.7 | 0.00 | 0.00 | 0.00 | 62 | 1021.1 |
| 20260505232143 | 88 | 155 | 1.7 | 3.5 | 0.00 | 0.00 | 0.00 | 61 | 1021.2 |
| 20260505231639 | 88 | 50 | 0.9 | 1.7 | 0.00 | 0.00 | 0.00 | 62 | 1021.1 |
| 20260505231139 | 88 | 59 | 1.7 | 6.1 | 0.00 | 0.00 | 0.00 | 61 | 1021.1 |
| 20260505230636 | 88 | 47 | 0.9 | 2.6 | 0.00 | 0.00 | 0.00 | 61 | 1021.2 |
| 20260505230132 | 90 | 164 | 1.7 | 5.2 | 0.00 | 0.00 | 0.00 | 59 | 1021.2 |
| 20260505225629 | 91 | 127 | 2.6 | 3.5 | 0.00 | 0.00 | 0.00 | 57 | 1021.2 |
| 20260505225125 | 91 | 153 | 3.5 | 5.2 | 0.00 | 0.00 | 0.00 | 57 | 1021.2 |
| 20260505224622 | 91 | 188 | 0.9 | 1.7 | 0.00 | 0.00 | 0.00 | 56 | 1021.4 |
| 20260505224119 | 90 | 37 | 0.0 | 0.9 | 0.00 | 0.00 | 0.00 | 58 | 1021.2 |
| 20260505223616 | 89 | 41 | 0.0 | 1.7 | 0.00 | 0.00 | 0.00 | 59 | 1021.3 |
| 20260505223113 | 90 | 102 | 0.0 | 1.7 | 0.00 | 0.00 | 0.00 | 57 | 1021.3 |
| 20260505222609 | 90 | 135 | 0.9 | 1.7 | 0.00 | 0.00 | 0.00 | 57 | 1021.4 |
| 20260505222105 | 91 | 83 | 0.9 | 2.6 | 0.00 | 0.00 | 0.00 | 56 | 1021.3 |
| 20260505221602 | 91 | 144 | 0.0 | 1.7 | 0.00 | 0.00 | 0.00 | 55 | 1021.4 |
| 20260505221059 | 91 | 105 | 1.7 | 5.2 | 0.00 | 0.00 | 0.00 | 56 | 1021.4 |
| 20260505220556 | 90 | 354 | 0.9 | 0.9 | 0.00 | 0.00 | 0.00 | 57 | 1021.4 |
| 20260505220054 | 89 | 65 | 1.7 | 1.7 | 0.00 | 0.00 | 0.00 | 58 | 1021.5 |
| 20260505215552 | 89 | 142 | 1.7 | 2.6 | 0.00 | 0.00 | 0.00 | 59 | 1021.5 |
| 20260505215049 | 90 | 90 | 0.9 | 0.9 | 0.00 | 0.00 | 0.00 | 57 | 1021.7 |
| 20260505214548 | 90 | 62 | 0.0 | 1.7 | 0.00 | 0.00 | 0.00 | 58 | 1021.8 |
| 20260505214044 | 90 | 46 | 1.7 | 2.6 | 0.00 | 0.00 | 0.00 | 58 | 1021.8 |
| 20260505213542 | 90 | 220 | 1.7 | 3.5 | 0.00 | 0.00 | 0.00 | 58 | 1021.7 |
| 20260505213038 | 90 | 36 | 0.9 | 1.7 | 0.00 | 0.00 | 0.00 | 57 | 1021.8 |
| 20260505212534 | 90 | 184 | 1.7 | 2.6 | 0.00 | 0.00 | 0.00 | 58 | 1022.1 |
| 20260505212032 | 90 | 308 | 0.0 | 3.5 | 0.00 | 0.00 | 0.00 | 58 | 1022.1 |
| 20260505211529 | 89 | 40 | 0.0 | 1.7 | 0.00 | 0.00 | 0.00 | 58 | 1022.1 |
| 20260505211025 | 89 | 67 | 0.9 | 2.6 | 0.00 | 0.00 | 0.00 | 60 | 1022.2 |
| 20260505210522 | 89 | 140 | 1.7 | 2.6 | 0.00 | 0.00 | 0.00 | 59 | 1022.3 |
| 20260505210019 | 89 | 102 | 1.7 | 2.6 | 0.00 | 0.00 | 0.00 | 59 | 1022.3 |
| 20260505205517 | 89 | 130 | 1.7 | 2.6 | 0.00 | 0.00 | 0.00 | 59 | 1022.4 |
| 20260505205014 | 88 | 153 | 0.9 | 1.7 | 0.00 | 0.00 | 0.00 | 60 | 1022.4 |
| 20260505204512 | 87 | 63 | 0.9 | 2.6 | 0.00 | 0.00 | 0.00 | 62 | 1022.5 |
| 20260505204009 | 87 | 158 | 0.9 | 2.6 | 0.00 | 0.00 | 0.00 | 63 | 1022.7 |
| 20260505203505 | 87 | 18 | 0.0 | 1.7 | 0.00 | 0.00 | 0.00 | 61 | 1022.9 |
| 20260505203002 | 88 | 256 | 1.7 | 5.2 | 0.00 | 0.00 | 0.00 | 61 | 1022.8 |
| 20260505202458 | 88 | 58 | 0.9 | 2.6 | 0.00 | 0.00 | 0.00 | 60 | 1022.7 |
| 20260505201954 | 88 | 70 | 0.0 | 2.6 | 0.00 | 0.00 | 0.00 | 60 | 1022.9 |
| 20260505201451 | 87 | 142 | 1.7 | 3.5 | 0.00 | 0.00 | 0.00 | 62 | 1023.0 |
| 20260505200949 | 88 | 67 | 0.9 | 1.7 | 0.00 | 0.00 | 0.00 | 61 | 1023.1 |
| 20260505200447 | 86 | 42 | 0.9 | 1.7 | 0.00 | 0.00 | 0.00 | 63 | 1023.1 |
| 20260505195942 | 86 | 68 | 0.0 | 1.7 | 0.00 | 0.00 | 0.00 | 64 | 1023.1 |
| 20260505195440 | 86 | 141 | 1.7 | 3.5 | 0.00 | 0.00 | 0.00 | 64 | 1023.1 |
| 20260505194937 | 85 | 175 | 0.9 | 3.5 | 0.00 | 0.00 | 0.00 | 65 | 1023.3 |
| 20260505194434 | 85 | 81 | 0.9 | 1.7 | 0.00 | 0.00 | 0.00 | 67 | 1023.2 |
| 20260505193934 | 84 | 117 | 2.6 | 3.5 | 0.00 | 0.00 | 0.00 | 67 | 1023.5 |
| 20260505193432 | 84 | 88 | 0.9 | 2.6 | 0.00 | 0.00 | 0.00 | 67 | 1023.5 |
| 20260505192930 | 84 | 151 | 1.7 | 1.7 | 0.00 | 0.00 | 0.00 | 66 | 1023.5 |
| 20260505192428 | 85 | 157 | 0.9 | 2.6 | 0.00 | 0.00 | 0.00 | 66 | 1023.6 |
| 20260505191925 | 85 | 145 | 1.7 | 3.5 | 0.00 | 0.00 | 0.00 | 66 | 1023.5 |
| 20260505191424 | 84 | 218 | 0.9 | 1.7 | 0.00 | 0.00 | 0.00 | 68 | 1023.7 |
| 20260505190920 | 84 | 134 | 0.9 | 1.7 | 0.00 | 0.00 | 0.00 | 67 | 1023.9 |
| 20260505190415 | 84 | 181 | 0.9 | 2.6 | 0.00 | 0.00 | 0.00 | 67 | 1024.0 |
| 20260505185911 | 84 | 94 | 1.7 | 3.5 | 0.00 | 0.00 | 0.00 | 67 | 1024.0 |
| 20260505185408 | 84 | 140 | 0.9 | 1.7 | 0.00 | 0.00 | 0.00 | 68 | 1024.0 |
| 20260505184904 | 83 | 82 | 0.9 | 1.7 | 0.00 | 0.00 | 0.00 | 68 | 1024.1 |
| 20260505184401 | 83 | 62 | 0.9 | 1.7 | 0.00 | 0.00 | 0.00 | 70 | 1024.3 |
| 20260505183858 | 83 | 91 | 0.9 | 3.5 | 0.00 | 0.00 | 0.00 | 68 | 1024.1 |
| 20260505183355 | 83 | 137 | 0.9 | 2.6 | 0.00 | 0.00 | 0.00 | 69 | 1024.3 |
| 20260505182851 | 82 | 81 | 0.9 | 1.7 | 0.00 | 0.00 | 0.00 | 70 | 1024.4 |
| 20260505182348 | 82 | 176 | 0.9 | 2.6 | 0.00 | 0.00 | 0.00 | 71 | 1024.4 |
| 20260505181845 | 82 | 135 | 1.7 | 2.6 | 0.00 | 0.00 | 0.00 | 70 | 1024.5 |
| 20260505181342 | 81 | 292 | 0.9 | 2.6 | 0.00 | 0.00 | 0.00 | 71 | 1024.4 |
| 20260505180839 | 82 | 238 | 1.7 | 1.7 | 0.00 | 0.00 | 0.00 | 71 | 1024.5 |
| 20260505180335 | 82 | 205 | 1.7 | 2.6 | 0.00 | 0.00 | 0.00 | 71 | 1024.7 |
| 20260505175832 | 82 | 291 | 0.9 | 1.7 | 0.00 | 0.00 | 0.00 | 72 | 1024.4 |
| 20260505175328 | 82 | 192 | 0.9 | 5.2 | 0.00 | 0.00 | 0.00 | 72 | 1024.5 |
| 20260505174825 | 82 | 211 | 2.6 | 2.6 | 0.00 | 0.00 | 0.00 | 71 | 1024.5 |
| 20260505174323 | 81 | 123 | 1.7 | 2.6 | 0.00 | 0.00 | 0.00 | 72 | 1024.5 |
| 20260505173818 | 80 | 34 | 0.9 | 1.7 | 0.00 | 0.00 | 0.00 | 74 | 1024.6 |
| 20260505173315 | 80 | 82 | 0.9 | 2.6 | 0.00 | 0.00 | 0.00 | 75 | 1024.6 |
| 20260505172812 | 79 | 252 | 0.9 | 2.6 | 0.00 | 0.00 | 0.00 | 75 | 1024.9 |
| 20260505172310 | 79 | 59 | 0.9 | 1.7 | 0.00 | 0.00 | 0.00 | 76 | 1024.7 |
| 20260505171804 | 79 | 152 | 0.9 | 3.5 | 0.00 | 0.00 | 0.00 | 76 | 1024.8 |
| 20260505171301 | 78 | 99 | 0.0 | 2.6 | 0.00 | 0.00 | 0.00 | 77 | 1024.8 |
| 20260505170757 | 78 | 131 | 1.7 | 2.6 | 0.00 | 0.00 | 0.00 | 77 | 1025.0 |
| 20260505170255 | 78 | 198 | 2.6 | 3.5 | 0.00 | 0.00 | 0.00 | 77 | 1024.9 |
| 20260505165755 | 78 | 208 | 2.6 | 3.5 | 0.00 | 0.00 | 0.00 | 78 | 1024.8 |
| 20260505165251 | 77 | 231 | 0.9 | 2.6 | 0.00 | 0.00 | 0.00 | 79 | 1024.7 |
| 20260505164747 | 77 | 265 | 1.7 | 2.6 | 0.00 | 0.00 | 0.00 | 79 | 1024.9 |
| 20260505164244 | 77 | 91 | 1.7 | 2.6 | 0.00 | 0.00 | 0.00 | 79 | 1024.8 |
| 20260505163743 | 77 | 148 | 1.7 | 3.5 | 0.00 | 0.00 | 0.00 | 79 | 1024.8 |
| 20260505163241 | 77 | 281 | 0.0 | 5.2 | 0.00 | 0.00 | 0.00 | 80 | 1024.8 |
| 20260505162738 | 76 | 39 | 0.9 | 2.6 | 0.00 | 0.00 | 0.00 | 81 | 1024.8 |
| 20260505162235 | 76 | 252 | 1.7 | 3.5 | 0.00 | 0.00 | 0.00 | 81 | 1024.8 |
| 20260505161732 | 76 | 204 | 2.6 | 3.5 | 0.00 | 0.00 | 0.00 | 82 | 1024.7 |
| 20260505161230 | 75 | 188 | 0.9 | 7.0 | 0.00 | 0.00 | 0.00 | 83 | 1024.8 |
| 20260505160726 | 75 | 72 | 0.0 | 3.5 | 0.00 | 0.00 | 0.00 | 84 | 1024.8 |
| 20260505160225 | 75 | 128 | 2.6 | 7.0 | 0.00 | 0.00 | 0.00 | 83 | 1024.8 |
| 20260505153203 | 74 | 224 | 1.7 | 2.6 | 0.00 | 0.00 | 0.00 | 85 | 1024.6 |
| 20260505152700 | 74 | 110 | 1.7 | 2.6 | 0.00 | 0.00 | 0.00 | 86 | 1024.8 |
| 20260505152156 | 73 | 357 | 0.9 | 1.7 | 0.00 | 0.00 | 0.00 | 86 | 1024.8 |
| 20260505151651 | 73 | 66 | 0.9 | 2.6 | 0.00 | 0.00 | 0.00 | 86 | 1024.8 |
| 20260505151149 | 73 | 279 | 2.6 | 3.5 | 0.00 | 0.00 | 0.00 | 86 | 1025.0 |
| 20260505150645 | 73 | 153 | 0.9 | 5.2 | 0.00 | 0.00 | 0.00 | 87 | 1024.9 |
| 20260505150142 | 73 | 69 | 0.9 | 0.9 | 0.00 | 0.00 | 0.00 | 88 | 1024.7 |